Weather Roundup
Issued by NWS Springfield, MO

Home | Current Version | Previous Version | Text Only | Print | Product List | Glossary On
Versions: 1 2 3 4 5 6 7 8 9 10 11 12 13 14 15 16 17 18 19 20 21 22 23 24 25 26 27 28 29 30 31 32 33 34 35 36 37 38 39 40 41 42 43 44 45 46 47 48 49 50
000
NZUS99 KSGF 010759
HRRSGF

HOURLY WEATHER
NATIONAL WEATHER SERVICE SPRINGFIELD MO
300 AM CDT SAT AUG 01 2015

......SGF CWA......

CITY           SKY/WX    TMP DP  RH WIND       PRES   REMARKS
SPRINGFIELD    CLEAR     66  60  81 CALM      30.08F
JOPLIN         CLEAR     63  58  83 CALM      30.08F
WEST PLAINS    CLEAR     68  63  84 CALM      30.10F
ROLLA          CLEAR     67  64  90 W3        30.06F
OSAGE BEACH    CLEAR     66  63  88 CALM      30.07F
BRANSON        PTCLDY    68  63  83 CALM      30.10F

......SURROUNDING SGF CWA......

CITY           SKY/WX    TMP DP  RH WIND       PRES   REMARKS
CHANUTE        CLEAR     70  68  93 CALM      30.07F
PARSONS        CLEAR     66  66 100 E3        30.08F
COFFEYVILLE    CLEAR     68  67  96 SE3       30.06F
EMPORIA        CLEAR     70  68  93 CALM      30.09S
GROVE OK       CLEAR     64  64 100 CALM      30.08S
SILOAM SPRINGS PTCLDY    66  59  77 E3        30.08S
HARRISON AR    PTCLDY    67  62  84 CALM      30.10F
NEAR YELLVILLE PTCLDY    66  63  88 CALM      30.05S

......KANSAS AND MISSOURI......

CITY           SKY/WX    TMP DP  RH WIND       PRES   REMARKS
KANSAS CTY INT CLEAR     72  68  87 SE6       30.05F
DOWNTOWN KC    CLEAR     78  69  73 CALM      30.04F
COLUMBIA       PTCLDY    72  68  87 CALM      30.06F
SEDALIA        PTCLDY    71  66  84 CALM      30.07F
ST JOSEPH      CLEAR     73  70  90 CALM      30.05S
ST LOUIS       PTCLDY    76  68  76 SW5       30.04S
SPIRIT OF STL  CLEAR     69  68  96 CALM      30.03S
KIRKSVILLE     PTCLDY    72  66  81 E3        30.06F
WICHITA        CLEAR     74  71  91 S5        30.09S
TOPEKA         CLEAR     73  71  93 CALM      30.06F
OLATHE         CLEAR     71  66  84 S5        30.06F

......TENNESSEE......

CITY           SKY/WX    TMP DP  RH WIND       PRES   REMARKS
MEMPHIS        PTCLDY    76  65  68 N5        30.01F
NASHVILLE      CLEAR     68  65  90 CALM      30.03S

......ARKANSAS.......

CITY           SKY/WX    TMP DP  RH WIND       PRES   REMARKS
FAYETTEVILLE   PTCLDY    63  63 100 CALM      30.10F
FT SMITH       PTCLDY    73  64  73 CALM      30.04F
LITTLE ROCK    MOCLDY    75  67  76 CALM      30.02F

......OKLAHOMA.......

CITY           SKY/WX    TMP DP  RH WIND       PRES   REMARKS
TULSA          PTCLDY    76  67  73 CALM      30.05S
PONCA CITY     CLEAR     74  72  93 CALM      30.08S FOG
MCALESTER      PTCLDY    70  68  93 CALM      30.06F
OKLAHOMA CITY  MOCLDY    72  71  97 CALM      30.09S

......IOWA............

CITY           SKY/WX    TMP DP  RH WIND       PRES   REMARKS
DES MOINES     PTCLDY    73  64  73 CALM      30.04F
QUAD CITIES    CLEAR     61  57  87 S5        30.03F

......ILLINOIS........

CITY           SKY/WX    TMP DP  RH WIND       PRES   REMARKS
QUINCY         MOCLDY    71  67  87 CALM      30.04F
CHICAGO        FAIR      67  53  61 W8        29.98F




USA.gov is the U.S. government's official web portal to all federal, state and local government web resources and services.